This is the latest recevied weather packets stored in our database for station/object KC3ELT-10. If no packets are shown the sender has not sent any weather packets the latest 10 day(s).
| Time | Temp. | Humidity | Pressure | Rain* | Wind** | Luminosity | Snow |
|---|---|---|---|---|---|---|---|
| 1777509478 | 8.89° C | 88% | 1003.3 hPa | 0 mm | 1.34 m/s, 164° | - | - |
| 1777509178 | 8.89° C | 88% | 1003.3 hPa | 0 mm | 0 m/s | - | - |
| 1777508878 | 8.89° C | 88% | 1003.6 hPa | 0 mm | 0.45 m/s, 164° | - | - |
| 1777508578 | 8.89° C | 88% | 1003.6 hPa | 0 mm | 2.24 m/s, 150° | - | - |
| 1777508278 | 8.89° C | 87% | 1003.6 hPa | 0 mm | 1.34 m/s, 122° | - | - |
| 1777507979 | 9.44° C | 87% | 1003.8 hPa | 0 mm | 0.89 m/s, 168° | - | - |
| 1777507678 | 9.44° C | 87% | 1003.8 hPa | 0 mm | 2.24 m/s, 143° | - | - |
| 1777507378 | 9.44° C | 87% | 1003.8 hPa | 0 mm | 1.34 m/s, 179° | - | - |
| 1777507078 | 9.44° C | 87% | 1003.6 hPa | 0 mm | 0.45 m/s, 146° | - | - |
| 1777506778 | 9.44° C | 86% | 1003.6 hPa | 0 mm | 0.89 m/s, 169° | - | - |
| 1777506479 | 9.44° C | 86% | 1003.6 hPa | 0 mm | 4.02 m/s, 177° | - | - |
| 1777506178 | 9.44° C | 86% | 1003.5 hPa | 0 mm | 1.34 m/s, 150° | - | - |
| 1777505878 | 9.44° C | 86% | 1003.5 hPa | 0 mm | 0.45 m/s, 170° | - | - |
| 1777505579 | 9.44° C | 86% | 1003.5 hPa | 0 mm | 1.34 m/s, 150° | - | - |
| 1777505279 | 9.44° C | 86% | 1003.8 hPa | 0 mm | 1.34 m/s, 153° | - | - |
| 1777504978 | 10° C | 85% | 1003.8 hPa | 0 mm | 1.79 m/s, 165° | - | - |
| 1777504679 | 10° C | 85% | 1003.8 hPa | 0 mm | 0.45 m/s, 151° | - | - |
| 1777504379 | 10° C | 85% | 1003.3 hPa | 0 mm | 1.79 m/s, 196° | - | - |
| 1777504079 | 10° C | 85% | 1003.3 hPa | 0 mm | 1.79 m/s, 148° | - | - |
| 1777503778 | 10° C | 84% | 1003.3 hPa | 0 mm | 1.79 m/s, 165° | - | - |
| 1777503478 | 10° C | 84% | 1003.2 hPa | 0 mm | 2.24 m/s, 155° | - | - |
| 1777503178 | 10° C | 83% | 1003.2 hPa | 0 mm | 1.79 m/s, 185° | - | - |
| 1777502878 | 10.56° C | 83% | 1003.2 hPa | 0 mm | 0.89 m/s, 144° | - | - |
| 1777502578 | 10.56° C | 82% | 1003.8 hPa | 0 mm | 0.89 m/s, 134° | - | - |
| 1777502279 | 10.56° C | 81% | 1003.8 hPa | 0 mm | 0.89 m/s, 143° | - | - |
* Rain latest hour (hover to see other rain measurements)
** Current wind speed in m/s (hover to see current wind gust speed)